H1 CPF 2 NER 2025 12 10 9 344 01 glonass142 H2 2001801 9142 45358 2025 12 10 0 0 0 2025 12 13 23 45 0 900 1 1 0 0 0 1 H9 10 0 61019 0.00000 0 -10273930.832 4135528.632 -22955716.554 10 0 61019 900.00000 0 -11771788.766 1755096.619 -22540176.102 10 0 61019 1800.00000 0 -13392074.110 -447055.907 -21685952.478 10 0 61019 2700.00000 0 -15083773.701 -2424750.920 -20409768.051 10 0 61019 3600.00000 0 -16789436.799 -4142366.402 -18736556.629 10 0 61019 4500.00000 0 -18447517.903 -5576068.437 -16698969.180 10 0 61019 5400.00000 0 -19994909.122 -6714542.259 -14336729.236 10 0 61019 6300.00000 0 -21369555.550 -7559193.575 -11695851.082 10 0 61019 7200.00000 0 -22513043.633 -8123813.893 -8827736.478 10 0 61019 8100.00000 0 -23373053.781 -8433726.174 -5788168.054 10 0 61019 9000.00000 0 -23905574.322 -8524448.911 -2636219.493 10 0 61019 9900.00000 0 -24076784.057 -8439936.958 566895.749 10 0 61019 10800.00000 0 -23864524.826 -8230475.006 3759014.374 10 0 61019 11700.00000 0 -23259302.825 -7950313.958 6878228.448 10 0 61019 12600.00000 0 -22264777.309 -7655150.918 9864082.334 10 0 61019 13500.00000 0 -20897716.813 -7399559.689 12658738.304 10 0 61019 14400.00000 0 -19187425.256 -7234480.319 15208088.695 10 0 61019 15300.00000 0 -17174662.197 -7204873.337 17462793.707 10 0 61019 16200.00000 0 -14910102.360 -7347637.148 19379225.743 10 0 61019 17100.00000 0 -12452398.264 -7689875.714 20920303.116 10 0 61019 18000.00000 0 -9865925.933 -8247589.010 22056198.136 10 0 61019 18900.00000 0 -7218306.300 -9024841.045 22764907.029 10 0 61019 19800.00000 0 -4577803.858 -10013440.572 23032671.584 10 0 61019 20700.00000 0 -2010708.982 -11193148.433 22854244.988 10 0 61019 21600.00000 0 421189.172 -12532403.912 22232996.961 10 0 61019 22500.00000 0 2662935.942 -13989541.084 21180855.949 10 0 61019 23400.00000 0 4668455.156 -15514445.925 19718088.879 10 0 61019 24300.00000 0 6402220.102 -17050586.621 17872921.731 10 0 61019 25200.00000 0 7840482.790 -18537333.800 15681006.965 10 0 61019 26100.00000 0 8972010.742 -19912474.931 13184746.723 10 0 61019 27000.00000 0 9798300.793 -21114818.549 10432483.483 10 0 61019 27900.00000 0 10333260.932 -22086779.578 7477572.571 10 0 61019 28800.00000 0 10602373.425 -22776837.103 4377353.575 10 0 61019 29700.00000 0 10641374.316 -23141760.671 1192040.020 10 0 61019 30600.00000 0 10494504.941 -23148510.374 -2016451.325 10 0 61019 31500.00000 0 10212409.482 -22775729.231 -5185708.461 10 0 61019 32400.00000 0 9849767.895 -22014763.382 -8254045.364 10 0 61019 33300.00000 0 9462765.153 -20870165.375 -11161711.752 10 0 61019 34200.00000 0 9106504.923 -19359657.764 -13852066.712 10 0 61019 35100.00000 0 8832478.470 -17513557.174 -16272692.237 10 0 61019 36000.00000 0 8686197.229 -15373681.946 -18376423.950 10 0 61019 36900.00000 0 8705090.615 -12991788.552 -20122278.024 10 0 61019 37800.00000 0 8916759.208 -10427601.933 -21476255.615 10 0 61019 38700.00000 0 9337658.241 -7746522.108 -22412008.771 10 0 61019 39600.00000 0 9972267.839 -5017103.062 -22911354.672 10 0 61019 40500.00000 0 10812785.617 -2308409.328 -22964628.308 10 0 61019 41400.00000 0 11839354.995 312639.364 -22570866.979 10 0 61019 42300.00000 0 13020819.686 2783824.685 -21737823.370 10 0 61019 43200.00000 0 14315972.555 5049981.314 -20481807.420 10 0 61019 44100.00000 0 15675246.028 7065046.187 -18827360.520 10 0 61019 45000.00000 0 17042772.601 8793720.901 -16806768.881 10 0 61019 45900.00000 0 18358728.314 10212679.275 -14459426.055 10 0 61019 46800.00000 0 19561860.250 11311271.341 -11831057.523 10 0 61019 47700.00000 0 20592091.291 12091696.290 -8972823.013 10 0 61019 48600.00000 0 21393092.328 12568639.312 -5940314.556 10 0 61019 49500.00000 0 21914713.545 12768389.828 -2792470.308 10 0 61019 50400.00000 0 22115172.525 12727480.320 409574.172 10 0 61019 51300.00000 0 21962907.352 12490905.043 3603674.452 10 0 61019 52200.00000 0 21438017.132 12109995.267 6727882.194 10 0 61019 53100.00000 0 20533229.827 11640041.863 9721643.016 10 0 61019 54000.00000 0 19254357.209 11137766.248 12526964.191 10 0 61019 54900.00000 0 17620218.213 10658746.631 15089529.954 10 0 61019 55800.00000 0 15662034.045 10254907.924 17359743.486 10 0 61019 56700.00000 0 13422320.243 9972180.650 19293676.312 10 0 61019 57600.00000 0 10953321.478 9848426.713 20853907.882 10 0 61019 58500.00000 0 8315053.510 9911718.624 22010240.190 10 0 61019 59400.00000 0 5573032.627 10179043.886 22740274.751 10 0 61019 60300.00000 0 2795785.390 10655488.620 23029841.728 10 0 61019 61200.00000 0 52240.428 11333934.753 22873273.524 10 0 61019 62100.00000 0 -2590891.337 12195283.920 22273517.826 10 0 61019 63000.00000 0 -5071641.110 13209199.615 21242087.754 10 0 61019 63900.00000 0 -7335108.164 14335337.744 19798849.471 10 0 61019 64800.00000 0 -9335492.017 15525015.507 17971650.397 10 0 61019 65700.00000 0 -11037747.428 16723250.182 15795793.927 10 0 61019 66600.00000 0 -12418793.863 17871083.742 13313369.448 10 0 61019 67500.00000 0 -13468229.338 18908096.816 10572449.171 10 0 61019 68400.00000 0 -14188518.809 19775007.109 7626166.072 10 0 61019 69300.00000 0 -14594649.050 20416243.119 4531689.839 10 0 61019 70200.00000 0 -14713264.362 20782384.424 1349120.076 10 0 61019 71100.00000 0 -14581319.320 20832364.810 -1859681.959 10 0 61019 72000.00000 0 -14244305.400 20535343.966 -5032300.096 10 0 61019 72900.00000 0 -13754126.641 19872167.176 -8106984.405 10 0 61019 73800.00000 0 -13166714.663 18836349.582 -11023862.103 10 0 61019 74700.00000 0 -12539484.746 17434541.725 -13726113.528 10 0 61019 75600.00000 0 -11928741.627 15686455.035 -16161089.173 10 0 61019 76500.00000 0 -11387145.904 13624248.967 -18281344.971 10 0 61019 77400.00000 0 -10961349.436 11291404.394 -20045574.769 10 0 61019 78300.00000 0 -10689900.765 8741129.756 -21419421.150 10 0 61019 79200.00000 0 -10601510.033 6034366.216 -22376148.446 10 0 61019 80100.00000 0 -10713747.344 3237475.106 -22897164.654 10 0 61019 81000.00000 0 -11032229.944 419704.166 -22972382.173 10 0 61019 81900.00000 0 -11550332.652 -2349461.668 -22600410.597 10 0 61019 82800.00000 0 -12249433.653 -5002954.528 -21788578.175 10 0 61019 83700.00000 0 -13099684.980 -7478672.514 -20552781.965 10 0 61019 84600.00000 0 -14061274.736 -9721817.476 -18917170.097 10 0 61019 85500.00000 0 -15086127.296 -11686924.982 -16913662.798 10 0 61020 0.00000 0 -16119969.100 -13339502.733 -14581322.280 10 0 61020 900.00000 0 -17104672.932 -14657211.333 -11965582.908 10 0 61020 1800.00000 0 -17980779.889 -15630537.602 -9117360.421 10 0 61020 2700.00000 0 -18690094.133 -16262937.202 -6092053.890 10 0 61020 3600.00000 0 -19178239.334 -16570440.417 -2948463.418 10 0 61020 4500.00000 0 -19397069.414 -16580740.737 252356.004 10 0 61020 5400.00000 0 -19306831.941 -16331806.394 3448281.594 10 0 61020 6300.00000 0 -18877993.190 -15870075.076 6577327.486 10 0 61020 7200.00000 0 -18092648.332 -15248309.252 9578843.492 10 0 61020 8100.00000 0 -16945457.723 -14523203.406 12394684.815 10 0 61020 9000.00000 0 -15444070.237 -13752844.537 14970330.460 10 0 61020 9900.00000 0 -13609015.956 -12994132.847 17255929.283 10 0 61020 10800.00000 0 -11473072.546 -12300270.859 19207254.395 10 0 61020 11700.00000 0 -9080131.306 -11718425.863 20786548.517 10 0 61020 12600.00000 0 -6483609.357 -11287663.096 21963245.067 10 0 61020 13500.00000 0 -3744472.884 -11037235.567 22714552.178 10 0 61020 14400.00000 0 -928952.063 -10985301.571 23025889.284 10 0 61020 15300.00000 0 1893959.132 -11138123.200 22891168.481 10 0 61020 16200.00000 0 4655116.414 -11489779.405 22312915.520 10 0 61020 17100.00000 0 7287845.446 -12022405.936 21302227.927 10 0 61020 18000.00000 0 9730461.879 -12706952.864 19878570.498 10 0 61020 18900.00000 0 11928588.057 -13504428.972 18069411.168 10 0 61020 19800.00000 0 13837171.280 -14367582.039 15909703.021 10 0 61020 20700.00000 0 15422120.358 -15242945.751 13441221.093 10 0 61020 21600.00000 0 16661492.603 -16073168.310 10711765.387 10 0 61020 22500.00000 0 17546181.763 -16799525.577 7774244.223 10 0 61020 23400.00000 0 18080077.849 -17364513.258 4685654.753 10 0 61020 24300.00000 0 18279691.888 -17714408.714 1505979.743 10 0 61020 25200.00000 0 18173261.060 -17801693.592 -1702978.172 10 0 61020 26100.00000 0 17799371.709 -17587233.851 -4878801.858 10 0 61020 27000.00000 0 17205158.340 -17042123.531 -7959680.675 10 0 61020 27900.00000 0 16444154.925 -16149112.600 -10885622.439 10 0 61020 28800.00000 0 15573889.863 -14903556.643 -13599631.675 10 0 61020 29700.00000 0 14653327.059 -13313846.454 -16048830.074 10 0 61020 30600.00000 0 13740262.222 -11401297.670 -18185496.326 10 0 61020 31500.00000 0 12888785.469 -9199503.617 -19968004.080 10 0 61020 32400.00000 0 12146918.367 -6753177.396 -21361639.141 10 0 61020 33300.00000 0 11554526.022 -4116530.899 -22339279.559 10 0 61020 34200.00000 0 11141592.876 -1351258.114 -22881925.183 10 0 61020 35100.00000 0 10926935.261 1475793.257 -22979066.467 10 0 61020 36000.00000 0 10917404.931 4295164.866 -22628885.556 10 0 61020 36900.00000 0 11107616.864 7037439.409 -21838286.147 10 0 61020 37800.00000 0 11480212.216 9635890.602 -20622751.953 10 0 61020 38700.00000 0 12006644.595 12029021.286 -19006037.034 10 0 61020 39600.00000 0 12648455.603 14162884.363 -17019694.498 10 0 61020 40500.00000 0 13358984.932 15993090.568 -14702453.295 10 0 61020 41400.00000 0 14085441.935 17486420.429 -12099455.698 10 0 61020 42300.00000 0 14771250.402 18621974.404 -9261370.899 10 0 61020 43200.00000 0 15358566.839 19391814.834 -6243402.512 10 0 61020 44100.00000 0 15790865.367 19801074.669 -3104209.794 10 0 61020 45000.00000 0 16015479.750 19867530.429 95235.848 10 0 61020 45900.00000 0 15985995.049 19620659.272 3292836.439 10 0 61020 46800.00000 0 15664388.040 19100221.630 6426571.783 10 0 61020 47700.00000 0 15022826.230 18354430.570 9435699.018 10 0 61020 48600.00000 0 14045049.954 17437786.011 12261924.282 10 0 61020 49500.00000 0 12727279.533 16408665.651 14850524.133 10 0 61020 50400.00000 0 11078609.470 15326774.115 17151395.660 10 0 61020 51300.00000 0 9120872.972 14250557.337 19120015.830 10 0 61020 52200.00000 0 6887981.981 13234690.137 20718292.610 10 0 61020 53100.00000 0 4424769.466 12327741.572 21915292.502 10 0 61020 54000.00000 0 1785381.042 11570114.914 22687831.567 10 0 61020 54900.00000 0 -968718.677 10992347.551 23020919.443 10 0 61020 55800.00000 0 -3771043.898 10613841.211 22908048.431 10 0 61020 56700.00000 0 -6552596.196 10442075.035 22351322.399 10 0 61020 57600.00000 0 -9244481.653 10472334.298 21361422.844 10 0 61020 58500.00000 0 -11780529.847 10687966.276 19957412.269 10 0 61020 59400.00000 0 -14099807.577 11061153.121 18166377.702 10 0 61020 60300.00000 0 -16148924.176 11554170.125 16022920.047 10 0 61020 61200.00000 0 -17884033.353 12121077.498 13568497.743 10 0 61020 62100.00000 0 -19272448.578 12709775.531 10850636.033 10 0 61020 63000.00000 0 -20293804.657 13264337.367 7922015.832 10 0 61020 63900.00000 0 -20940716.623 13727521.552 4839458.882 10 0 61020 64800.00000 0 -21218907.887 14043358.345 1662828.194 10 0 61020 65700.00000 0 -21146801.783 14159700.108 -1546135.137 10 0 61020 66600.00000 0 -20754593.215 14030627.001 -4725015.901 10 0 61020 67500.00000 0 -20082839.284 13618604.892 -7811945.566 10 0 61020 68400.00000 0 -19180628.320 12896302.514 -10746815.263 10 0 61020 69300.00000 0 -18103404.872 11847989.137 -13472456.263 10 0 61020 70200.00000 0 -16910543.034 10470451.742 -15935763.829 10 0 61020 71100.00000 0 -15662771.299 8773391.082 -18088741.497 10 0 61020 72000.00000 0 -14419558.521 6779278.238 -19889444.513 10 0 61020 72900.00000 0 -13236572.109 4522676.234 -21302803.343 10 0 61020 73800.00000 0 -12163316.370 2049054.029 -22301310.834 10 0 61020 74700.00000 0 -11241051.072 -586858.202 -22865559.410 10 0 61020 75600.00000 0 -10501078.106 -3323104.217 -22984617.930 10 0 61020 76500.00000 0 -9963468.279 -6092842.576 -22656241.103 10 0 61020 77400.00000 0 -9636281.407 -8826895.661 -21886907.724 10 0 61020 78300.00000 0 -9515311.762 -11456400.641 -20691687.482 10 0 61020 79200.00000 0 -9584368.574 -13915452.060 -19093939.359 10 0 61020 80100.00000 0 -9816078.603 -16143626.109 -17124848.043 10 0 61020 81000.00000 0 -10173175.639 -18088281.841 -14822807.877 10 0 61020 81900.00000 0 -10610221.258 -19706544.058 -12232666.833 10 0 61020 82800.00000 0 -11075683.015 -20966886.073 -9404845.797 10 0 61020 83700.00000 0 -11514281.214 -21850247.487 -6394350.834 10 0 61020 84600.00000 0 -11869504.255 -22350641.783 -3259698.168 10 0 61020 85500.00000 0 -12086185.604 -22475229.967 -61773.342 10 0 61021 0.00000 0 -12113033.095 -22243859.026 3137352.564 10 0 61021 900.00000 0 -11905003.509 -21688086.102 6275628.054 10 0 61021 1800.00000 0 -11425422.159 -20849731.352 9292219.850 10 0 61021 2700.00000 0 -10647758.298 -19779021.091 12128687.609 10 0 61021 3600.00000 0 -9556981.563 -18532400.333 14730108.044 10 0 61021 4500.00000 0 -8150442.539 -17170106.944 17046128.998 10 0 61021 5400.00000 0 -6438240.339 -15753609.131 19031933.676 10 0 61021 6300.00000 0 -4443061.385 -14343013.239 20649097.454 10 0 61021 7200.00000 0 -2199495.413 -12994549.611 21866321.798 10 0 61021 8100.00000 0 247143.847 -11758240.674 22660032.236 10 0 61021 9000.00000 0 2842445.676 -10675847.591 23014829.788 10 0 61021 9900.00000 0 5524911.059 -9779180.210 22923787.782 10 0 61021 10800.00000 0 8228261.576 -9088839.986 22388588.647 10 0 61021 11700.00000 0 10883954.627 -8613447.748 21419497.967 10 0 61021 12600.00000 0 13423802.480 -8349388.296 20035175.709 10 0 61021 13500.00000 0 15782588.108 -8281082.556 18262327.434 10 0 61021 14400.00000 0 17900570.525 -8381776.247 16135200.953 10 0 61021 15300.00000 0 19725776.309 -8614812.570 13694936.831 10 0 61021 16200.00000 0 21215982.370 -8935336.143 10988783.885 10 0 61021 17100.00000 0 22340307.308 -9292357.096 8069193.556 10 0 61021 18000.00000 0 23080344.468 -9631088.785 4992809.709 10 0 61021 18900.00000 0 23430788.696 -9895460.597 1819372.761 10 0 61021 19800.00000 0 23399529.794 -10030699.349 -1389440.849 10 0 61021 20700.00000 0 23007208.021 -9985869.366 -4571221.140 10 0 61021 21600.00000 0 22286249.806 -9716262.608 -7664045.049 10 0 61021 22500.00000 0 21279423.944 -9185536.090 -10607690.328 10 0 61021 23400.00000 0 20037979.100 -8367504.384 -13344818.142 10 0 61021 24300.00000 0 18619441.378 -7247509.426 -15822100.221 10 0 61021 25200.00000 0 17085165.332 -5823307.797 -17991267.573 10 0 61021 26100.00000 0 15497742.313 -4105436.189 -19810059.331 10 0 61021 27000.00000 0 13918376.062 -2117038.007 -21243052.590 10 0 61021 27900.00000 0 12404336.721 106842.978 -22262356.597 10 0 61021 28800.00000 0 11006600.900 2520473.344 -22848157.588 10 0 61021 29700.00000 0 9767777.246 5069095.109 -22989103.690 10 0 61021 30600.00000 0 8720404.626 7690976.045 -22682522.636 10 0 61021 31500.00000 0 7885693.931 10319759.745 -21934468.416 10 0 61021 32400.00000 0 7272765.563 12887017.498 -20759596.387 10 0 61021 33300.00000 0 6878413.466 15324895.554 -19180869.780 10 0 61021 34200.00000 0 6687404.230 17568747.432 -17229103.812 10 0 61021 35100.00000 0 6673297.094 19559641.683 -14942356.791 10 0 61021 36000.00000 0 6799748.657 21246640.873 -12365180.597 10 0 61021 36900.00000 0 7022245.699 22588757.197 -9547745.651 10 0 61021 37800.00000 0 7290191.494 23556503.951 -6544857.963 10 0 61021 38700.00000 0 7549256.254 24132979.083 -3414887.913 10 0 61021 39600.00000 0 7743891.352 24314436.845 -218632.124 10 0 61021 40500.00000 0 7819900.359 24110325.103 2981868.991 10 0 61021 41400.00000 0 7726957.771 23542788.307 6124534.759 10 0 61021 42300.00000 0 7420968.837 22645658.425 9148445.290 10 0 61021 43200.00000 0 6866170.874 21462977.440 11995016.879 10 0 61021 44100.00000 0 6036887.545 20047114.334 14609129.316 10 0 61021 45000.00000 0 4918862.326 18456556.015 16940183.887 10 0 61021 45900.00000 0 3510115.084 16753464.878 18943072.450 10 0 61021 46800.00000 0 1821285.539 15001104.829 20579039.904 10 0 61021 47700.00000 0 -124551.325 13261242.719 21816424.465 10 0 61021 48600.00000 0 -2292591.117 11591632.675 22631262.563 10 0 61021 49500.00000 0 -4637499.048 10043687.106 23007747.644 10 0 61021 50400.00000 0 -7105053.743 8660430.259 22938534.665 10 0 61021 51300.00000 0 -9634169.340 7474818.493 22424884.768 10 0 61021 52200.00000 0 -12159213.863 6508496.283 21476647.246 10 0 61021 53100.00000 0 -14612529.427 5771039.189 20112078.655 10 0 61021 54000.00000 0 -16927051.408 5259714.998 18357501.676 10 0 61021 54900.00000 0 -19038919.140 4959772.963 16246809.128 10 0 61021 55800.00000 0 -20889970.576 4845249.225 13820821.371 10 0 61021 56700.00000 0 -22430017.539 4880255.036 11126508.111 10 0 61021 57600.00000 0 -23618806.759 5020694.006 8216088.370 10 0 61021 58500.00000 0 -24427584.355 5216336.483 5146025.030 10 0 61021 59400.00000 0 -24840197.592 5413163.621 1975932.752 10 0 61021 60300.00000 0 -24853686.825 5555881.986 -1232579.865 10 0 61021 61200.00000 0 -24478341.768 5590501.737 -4417111.182 10 0 61021 62100.00000 0 -23737218.862 5466868.270 -7515686.634 10 0 61021 63000.00000 0 -22665139.319 5141038.805 -10467973.501 10 0 61021 63900.00000 0 -21307209.651 4577401.604 -13216465.567 10 0 61021 64800.00000 0 -19716926.870 3750446.284 -15707613.540 10 0 61021 65700.00000 0 -17953948.343 2646108.462 -17892878.092 10 0 61021 66600.00000 0 -16081620.636 1262630.031 -19729684.078 10 0 61021 67500.00000 0 -14164371.842 -389102.915 -21182256.612 10 0 61021 68400.00000 0 -12265077.622 -2285760.276 -22222322.266 10 0 61021 69300.00000 0 -10442512.067 -4392299.024 -22829661.524 10 0 61021 70200.00000 0 -8748990.652 -6663195.411 -22992501.739 10 0 61021 71100.00000 0 -7228304.105 -9044127.305 -22707743.199 10 0 61021 72000.00000 0 -5914029.455 -11474036.572 -21981014.207 10 0 61021 72900.00000 0 -4828288.259 -13887485.458 -20826554.583 10 0 61021 73800.00000 0 -3981002.943 -16217208.542 -19266930.302 10 0 61021 74700.00000 0 -3369680.954 -18396753.662 -17332585.376 10 0 61021 75600.00000 0 -2979734.054 -20363101.510 -15061240.176 10 0 61021 76500.00000 0 -2785317.440 -22059154.655 -12497148.456 10 0 61021 77400.00000 0 -2750651.450 -23435992.216 -9690228.068 10 0 61021 78300.00000 0 -2831768.298 -24454796.473 -6695082.841 10 0 61021 79200.00000 0 -2978608.509 -25088371.551 -3569935.173 10 0 61021 80100.00000 0 -3137377.117 -25322191.587 -375490.641 10 0 61021 81000.00000 0 -3253058.993 -25154935.618 2826242.856 10 0 61021 81900.00000 0 -3271986.267 -24598488.090 5973158.176 10 0 61021 82800.00000 0 -3144348.925 -23677406.185 9004250.688 10 0 61021 83700.00000 0 -2826542.394 -22427877.498 11860795.484 10 0 61021 84600.00000 0 -2283253.089 -20896212.624 14487477.579 10 0 61021 85500.00000 0 -1489194.159 -19136936.392 16833453.794 10 0 61022 0.00000 0 -430418.568 -17210557.961 18853326.452 10 0 61022 900.00000 0 894846.350 -15181111.669 20508012.139 10 0 61022 1800.00000 0 2475876.696 -13113573.301 21765487.197 10 0 61022 2700.00000 0 4289658.256 -11071255.072 22601400.262 10 0 61022 3600.00000 0 6301612.266 -9113289.169 22999538.208 10 0 61022 4500.00000 0 8466812.355 -7292302.280 22952138.322 10 0 61022 5400.00000 0 10731643.592 -5652376.680 22460040.850 10 0 61022 6300.00000 0 13035836.505 -4227381.494 21532678.904 10 0 61022 7200.00000 0 15314793.357 -3039742.642 20187905.443 10 0 61022 8100.00000 0 17502111.772 -2099701.977 18451659.815 10 0 61022 9000.00000 0 19532202.248 -1405096.144 16357479.103 10 0 61022 9900.00000 0 21342891.734 -941664.267 13945862.411 10 0 61022 10800.00000 0 22877905.418 -683871.685 11263498.955 10 0 61022 11700.00000 0 24089123.318 -596215.371 8362373.601 10 0 61022 12600.00000 0 24938517.017 -634956.366 5298766.150 10 0 61022 13500.00000 0 25399684.719 -750206.328 2132163.040 10 0 61022 14400.00000 0 25458919.228 -888279.983 -1075897.726 10 0 61022 15300.00000 0 25115762.821 -994213.595 -4263025.846 10 0 61022 16200.00000 0 24383024.493 -1014342.079 -7367198.378 10 0 61022 17100.00000 0 23286257.781 -898824.480 -10327975.245 10 0 61022 18000.00000 0 21862720.337 -604009.397 -13087685.886 10 0 61022 18900.00000 0 20159858.502 -94538.521 -15592562.815 10 0 61022 19800.00000 0 18233380.465 654902.553 -17793798.977 10 0 61022 20700.00000 0 16144999.137 1658262.047 -19648507.272 10 0 61022 21600.00000 0 13959939.911 2917285.805 -21120562.873 10 0 61022 22500.00000 0 11744318.337 4421203.973 -22181311.437 10 0 61022 23400.00000 0 9562498.187 6146954.995 -22810129.145 10 0 61022 24300.00000 0 7474540.859 8059938.505 -22994823.714 10 0 61022 25200.00000 0 5533853.008 10115266.214 -22731868.772 10 0 61022 26100.00000 0 3785130.583 12259458.722 -22026467.356 10 0 61022 27000.00000 0 2262684.657 14432517.395 -20892443.764 10 0 61022 27900.00000 0 989218.024 16570284.590 -19351966.330 10 0 61022 28800.00000 0 -24897.581 18606993.388 -17435107.049 10 0 61022 29700.00000 0 -781815.163 20477900.034 -15179247.135 10 0 61022 30600.00000 0 -1295870.877 22121888.922 -12628340.587 10 0 61022 31500.00000 0 -1592723.644 23483941.100 -9832050.680 10 0 61022 32400.00000 0 -1708014.269 24517363.200 -6844776.696 10 0 61022 33300.00000 0 -1685602.553 25185683.858 -3724590.373 10 0 61022 34200.00000 0 -1575458.477 25464138.762 -532103.311 10 0 61022 35100.00000 0 -1431297.948 25340682.931 2670712.210 10 0 61022 36000.00000 0 -1308064.013 24816488.741 5821725.789 10 0 61022 36900.00000 0 -1259360.676 23905909.837 8859851.273 10 0 61022 37800.00000 0 -1334948.029 22635913.402 11726225.707 10 0 61022 38700.00000 0 -1578404.476 21045005.385 14365342.360 10 0 61022 39600.00000 0 -2025054.539 19181694.174 16726116.426 10 0 61022 40500.00000 0 -2700249.290 17102557.185 18762863.640 10 0 61022 41400.00000 0 -3618071.616 14869990.834 20436173.907 10 0 61022 42300.00000 0 -4780520.718 12549737.198 21713664.146 10 0 61022 43200.00000 0 -6177210.401 10208289.379 22570596.924 10 0 61022 44100.00000 0 -7785594.494 7910282.308 22990353.896 10 0 61022 45000.00000 0 -9571711.089 5715976.058 22964755.603 10 0 61022 45900.00000 0 -11491415.955 3678934.760 22494221.840 10 0 61022 46800.00000 0 -13492055.475 1843996.144 21587769.470 10 0 61022 47700.00000 0 -15514511.168 245614.910 20262847.238 10 0 61022 48600.00000 0 -17495532.463 -1093352.149 18545009.979 10 0 61022 49500.00000 0 -19370262.164 -2162369.363 16467437.329 10 0 61022 50400.00000 0 -21074850.560 -2963423.911 14070304.925 10 0 61022 51300.00000 0 -22549049.953 -3510697.780 11400018.852 10 0 61022 52200.00000 0 -23738681.522 -3829723.661 8508326.838 10 0 61022 53100.00000 0 -24597871.090 -3956060.080 5451322.372 10 0 61022 54000.00000 0 -25090959.443 -3933541.481 2288360.291 10 0 61022 54900.00000 0 -25194005.983 -3812177.093 -919095.445 10 0 61022 55800.00000 0 -24895821.207 -3645787.665 -4108669.317 10 0 61022 56700.00000 0 -24198483.170 -3489480.647 -7218293.382 10 0 61022 57600.00000 0 -23117314.805 -3397071.632 -10187423.482 10 0 61022 58500.00000 0 -21680321.845 -3418562.508 -12958227.805 10 0 61022 59400.00000 0 -19927114.046 -3597784.608 -15476723.538 10 0 61022 60300.00000 0 -17907354.490 -3970308.251 -17693838.423 10 0 61022 61200.00000 0 -15678801.834 -4561708.780 -19566375.523 10 0 61022 62100.00000 0 -13305027.755 -5386263.979 -21057861.686 10 0 61022 63000.00000 0 -10852905.473 -6446139.295 -22139262.684 10 0 61022 63900.00000 0 -8389974.916 -7731096.454 -22789550.827 10 0 61022 64800.00000 0 -5981795.046 -9218738.675 -22996114.033 10 0 61022 65700.00000 0 -3689394.143 -10875282.871 -22754998.548 10 0 61022 66600.00000 0 -1566924.499 -12656826.796 -22070980.937 10 0 61022 67500.00000 0 340381.021 -14511058.104 -20957468.369 10 0 61022 68400.00000 0 1997866.024 -16379333.643 -19436229.612 10 0 61022 69300.00000 0 3382653.234 -18199041.614 -17536962.485 10 0 61022 70200.00000 0 4484344.076 -19906147.359 -15296706.709 10 0 61022 71100.00000 0 5305187.806 -21437815.847 -12759114.097 10 0 61022 72000.00000 0 5859715.269 -22735000.728 -9973590.848 10 0 61022 72900.00000 0 6173854.873 -23744891.351 -6994329.183 10 0 61022 73800.00000 0 6283570.164 -24423115.253 -3879247.693 10 0 61022 74700.00000 0 6233078.415 -24735603.986 -688861.560 10 0 61022 75600.00000 0 6072727.083 -24660044.544 2514894.936 10 0 61022 76500.00000 0 5856619.147 -24186856.103 5669870.424 10 0 61022 77400.00000 0 5640088.560 -23319651.862 8714899.415 10 0 61022 78300.00000 0 5477132.987 -22075167.363 11590982.985 10 0 61022 79200.00000 0 5417912.387 -20482658.935 14242424.582 10 0 61022 80100.00000 0 5506418.851 -18582797.836 16617899.537 10 0 61022 81000.00000 0 5778415.594 -16426106.517 18671438.379 10 0 61022 81900.00000 0 6259731.529 -14071001.995 20363306.004 10 0 61022 82800.00000 0 6964982.838 -11581527.341 21660760.752 10 0 61022 83700.00000 0 7896775.192 -9024864.747 22538679.868 10 0 61022 84600.00000 0 9045420.339 -6468732.273 22980040.238 10 0 61022 85500.00000 0 10389179.626 -3978770.974 22976245.824 99